| time (UTC) | temp F | wind direction | speed MPH | gust MPH | rain 1hr in | rain 24hr in | rain mn in | humidity % | barometer mb |
| 20260505003021 | 76 | 171 | 2.0 | 7.0 | 0.00 | 0.00 | 0.00 | 74 | 1010.3 |
| 20260505001538 | 76 | 169 | 2.0 | 8.0 | 0.00 | 0.00 | 0.00 | 75 | 1010.4 |
| 20260505000011 | 76 | 200 | 3.0 | 10.0 | 0.00 | 0.00 | 0.00 | 72 | 1010.3 |
| 20260504234512 | 77 | 157 | 3.0 | 10.0 | 0.00 | 0.00 | 0.00 | 70 | 1010.4 |
| 20260504233030 | 77 | 173 | 4.0 | 11.0 | 0.00 | 0.00 | 0.00 | 70 | 1010.5 |
| 20260504231531 | 78 | 168 | 6.0 | 11.0 | 0.00 | 0.00 | 0.00 | 70 | 1010.7 |
| 20260504230050 | 79 | 182 | 2.0 | 10.0 | 0.00 | 0.00 | 0.00 | 68 | 1010.7 |
| 20260504224524 | 80 | 208 | 3.0 | 13.0 | 0.00 | 0.00 | 0.00 | 67 | 1010.8 |
| 20260504223029 | 80 | 201 | 6.0 | 16.0 | 0.00 | 0.00 | 0.00 | 67 | 1011.0 |
| 20260504221517 | 80 | 161 | 2.0 | 13.0 | 0.00 | 0.00 | 0.00 | 67 | 1011.2 |
| 20260504220018 | 80 | 183 | 4.0 | 10.0 | 0.00 | 0.00 | 0.00 | 66 | 1011.2 |
| 20260504214520 | 81 | 135 | 4.0 | 12.0 | 0.00 | 0.00 | 0.00 | 66 | 1011.2 |
| 20260504213020 | 83 | 176 | 5.0 | 13.0 | 0.00 | 0.00 | 0.00 | 63 | 1011.6 |
| 20260504211515 | 85 | 184 | 1.0 | 8.0 | 0.00 | 0.00 | 0.00 | 63 | 1011.7 |
| 20260504210024 | 84 | 191 | 1.0 | 8.0 | 0.00 | 0.00 | 0.00 | 63 | 1012.0 |
| 20260504204524 | 84 | 130 | 1.0 | 9.0 | 0.00 | 0.00 | 0.00 | 62 | 1012.0 |
| 20260504203019 | 83 | 148 | 5.0 | 10.0 | 0.00 | 0.00 | 0.00 | 61 | 1012.3 |
| 20260504201538 | 83 | 141 | 2.0 | 10.0 | 0.00 | 0.00 | 0.00 | 63 | 1012.4 |
| 20260504200014 | 83 | 128 | 3.0 | 14.0 | 0.00 | 0.00 | 0.00 | 61 | 1012.7 |
| 20260504194526 | 83 | 138 | 3.0 | 8.0 | 0.00 | 0.00 | 0.00 | 58 | 1012.8 |
| 20260504193045 | 84 | 206 | 4.0 | 9.0 | 0.00 | 0.00 | 0.00 | 57 | 1013.1 |
| 20260504191527 | 84 | 180 | 3.0 | 11.0 | 0.00 | 0.00 | 0.00 | 54 | 1013.4 |
| 20260504190045 | 84 | 185 | 5.0 | 10.0 | 0.00 | 0.00 | 0.00 | 53 | 1013.3 |
| 20260504184525 | 83 | 193 | 5.0 | 15.0 | 0.00 | 0.00 | 0.00 | 57 | 1013.7 |
| 20260504183025 | 83 | 188 | 4.0 | 11.0 | 0.00 | 0.00 | 0.00 | 57 | 1013.5 |
| 20260504181512 | 82 | 192 | 3.0 | 11.0 | 0.00 | 0.00 | 0.00 | 57 | 1014.0 |
| 20260504180012 | 81 | 186 | 4.0 | 10.0 | 0.00 | 0.00 | 0.00 | 61 | 1014.1 |
| 20260504174511 | 80 | 200 | 3.0 | 11.0 | 0.00 | 0.00 | 0.00 | 60 | 1014.3 |
| 20260504173035 | 80 | 173 | 3.0 | 11.0 | 0.00 | 0.00 | 0.00 | 64 | 1014.4 |
| 20260504171514 | 80 | 148 | 6.0 | 14.0 | 0.00 | 0.00 | 0.00 | 57 | 1014.8 |
| 20260504081518 | 59 | 159 | 0.0 | 0.0 | 0.00 | 0.00 | 0.00 | 87 | 1016.1 |
| 20260504050021 | 60 | 159 | 0.0 | 1.0 | 0.00 | 0.00 | 0.00 | 83 | 1018.0 |
| 20260504044543 | 61 | 159 | 0.0 | 1.0 | 0.00 | 0.00 | 0.00 | 81 | 1018.1 |
| 20260504043022 | 61 | 159 | 0.0 | 0.0 | 0.00 | 0.00 | 0.00 | 82 | 1018.1 |
| 20260504041524 | 62 | 159 | 0.0 | 1.0 | 0.00 | 0.00 | 0.00 | 81 | 1018.0 |
| 20260504040020 | 62 | 159 | 0.0 | 0.0 | 0.00 | 0.00 | 0.00 | 79 | 1018.1 |
| 20260504034520 | 63 | 159 | 0.0 | 1.0 | 0.00 | 0.00 | 0.00 | 79 | 1018.3 |
| 20260504033019 | 63 | 159 | 0.0 | 2.0 | 0.00 | 0.00 | 0.00 | 80 | 1018.2 |
| 20260504031521 | 64 | 159 | 1.0 | 5.0 | 0.00 | 0.00 | 0.00 | 80 | 1018.1 |
| 20260504030029 | 64 | 159 | 2.0 | 7.0 | 0.00 | 0.00 | 0.00 | 77 | 1018.0 |
| 20260504024555 | 65 | 159 | 1.0 | 5.0 | 0.00 | 0.00 | 0.00 | 76 | 1018.0 |
| 20260504023011 | 65 | 159 | 1.0 | 6.0 | 0.00 | 0.00 | 0.00 | 77 | 1018.0 |
| 20260504021516 | 65 | 159 | 2.0 | 6.0 | 0.00 | 0.00 | 0.00 | 78 | 1017.9 |
| 20260504020027 | 66 | 159 | 3.0 | 7.0 | 0.00 | 0.00 | 0.00 | 77 | 1017.7 |
| 20260504014527 | 66 | 159 | 2.0 | 5.0 | 0.00 | 0.00 | 0.00 | 76 | 1017.8 |
| 20260504013028 | 67 | 159 | 2.0 | 5.0 | 0.00 | 0.00 | 0.00 | 75 | 1017.5 |
| 20260504011527 | 67 | 152 | 1.0 | 7.0 | 0.00 | 0.00 | 0.00 | 73 | 1017.4 |
| 20260504010025 | 68 | 136 | 2.0 | 3.0 | 0.00 | 0.00 | 0.00 | 70 | 1017.4 |
| 20260504004530 | 69 | 136 | 1.0 | 4.0 | 0.00 | 0.00 | 0.00 | 70 | 1017.5 |